When you browse on this site, cookies collect data to enhance your experience and personalize the content and advertising you see.
Visit our Privacy Policy to learn more. By continuing to use the site, you agree to this use of cookies and data.
  • In Österreich
  • Länderverzeichnis
  • Für 7 Tage
  • Wassertemperatur
  • Satellitenkarten
  • Wetterkarte
  • News
  • Widgets
  • user-avatar
    Anmelden

    Stündliche Wetter Kozyatyn

    Heute, 23 April, Dienstag

    Zeit Temperatur Niederschläge Wind Luftdruck Luftfeuchtigkeit
    00:00 +9°C° 0 mm 1 m/S 745 mmHg 58%
    01:00 +9°C° 0 mm 1 m/S 745 mmHg 57%
    02:00 +10°C° 0 mm 1 m/S 745 mmHg 56%
    03:00 +8°C° 0 mm 2 m/S 745 mmHg 56%
    04:00 +8°C° 0 mm 2 m/S 745 mmHg 56%
    05:00 +8°C° 0 mm 2 m/S 745 mmHg 57%
    06:00 +9°C° 0 mm 2 m/S 745 mmHg 56%
    07:00 +10°C° 0 mm 3 m/S 746 mmHg 55%
    08:00 +11°C° 0 mm 3 m/S 746 mmHg 54%
    09:00 +13°C° 0 mm 4 m/S 746 mmHg 48%
    10:00 +14°C° 0 mm 4 m/S 746 mmHg 42%
    11:00 +15°C° 0 mm 5 m/S 746 mmHg 37%
    12:00 +15°C° 0 mm 5 m/S 746 mmHg 37%
    13:00 +15°C° 0 mm 5 m/S 746 mmHg 38%
    14:00 +15°C° 0 mm 5 m/S 746 mmHg 39%
    15:00 +15°C° 0 mm 5 m/S 746 mmHg 41%
    16:00 +15°C° 0 mm 5 m/S 745 mmHg 42%
    17:00 +15°C° 0 mm 5 m/S 745 mmHg 44%
    18:00 +13°C° 0 mm 4 m/S 745 mmHg 49%
    19:00 +12°C° 0 mm 3 m/S 745 mmHg 55%
    20:00 +10°C° 0 mm 3 m/S 745 mmHg 60%
    21:00 +10°C° 0 mm 3 m/S 745 mmHg 60%
    22:00 +9°C° 0 mm 3 m/S 745 mmHg 61%
    23:00 +8°C° 0 mm 3 m/S 745 mmHg 61%

    Morgen, 24 April, Mittwoch

    Zeit Temperatur Niederschläge Wind Luftdruck Luftfeuchtigkeit
    00:00 +8°C° 0 mm 3 m/S 745 mmHg 62%
    01:00 +8°C° 0 mm 3 m/S 745 mmHg 63%
    02:00 +7°C° 0 mm 3 m/S 746 mmHg 64%
    03:00 +7°C° 0 mm 3 m/S 745 mmHg 66%
    04:00 +5°C° 0 mm 3 m/S 745 mmHg 68%
    05:00 +5°C° 0 mm 3 m/S 745 mmHg 70%
    06:00 +8°C° 0 mm 3 m/S 745 mmHg 65%
    07:00 +10°C° 0 mm 4 m/S 746 mmHg 60%
    08:00 +12°C° 0 mm 5 m/S 746 mmHg 55%
    09:00 +13°C° 0 mm 5 m/S 746 mmHg 51%
    10:00 +14°C° 0 mm 6 m/S 746 mmHg 47%
    11:00 +15°C° 0 mm 6 m/S 746 mmHg 43%
    12:00 +16°C° 0 mm 6 m/S 746 mmHg 42%
    13:00 +16°C° 0 mm 6 m/S 746 mmHg 42%
    14:00 +17°C° 0 mm 6 m/S 746 mmHg 41%
    15:00 +16°C° 0 mm 6 m/S 745 mmHg 42%
    16:00 +16°C° 0 mm 6 m/S 745 mmHg 44%
    17:00 +16°C° 0 mm 5 m/S 745 mmHg 45%
    18:00 +14°C° 0 mm 5 m/S 745 mmHg 51%
    19:00 +13°C° 0 mm 4 m/S 745 mmHg 56%
    20:00 +11°C° 0 mm 3 m/S 745 mmHg 62%
    21:00 +10°C° 0 mm 3 m/S 745 mmHg 64%
    22:00 +10°C° 0 mm 3 m/S 745 mmHg 65%
    23:00 +9°C° 0 mm 3 m/S 745 mmHg 67%

    übermorgen, 25 April, Donnerstag

    Zeit Temperatur Niederschläge Wind Luftdruck Luftfeuchtigkeit
    00:00 +9°C° 0 mm 3 m/S 745 mmHg 68%
    01:00 +8°C° 0 mm 3 m/S 745 mmHg 70%
    02:00 +8°C° 0 mm 3 m/S 745 mmHg 71%
    03:00 +8°C° 0 mm 3 m/S 745 mmHg 72%
    04:00 +7°C° 0 mm 3 m/S 745 mmHg 73%
    05:00 +7°C° 0 mm 3 m/S 745 mmHg 73%
    06:00 +8°C° 0 mm 4 m/S 745 mmHg 69%
    07:00 +11°C° 0 mm 4 m/S 745 mmHg 65%
    08:00 +12°C° 0 mm 5 m/S 745 mmHg 61%
    09:00 +14°C° 0 mm 5 m/S 745 mmHg 56%
    10:00 +15°C° 0 mm 6 m/S 745 mmHg 52%
    11:00 +16°C° 0 mm 6 m/S 745 mmHg 48%
    12:00 +17°C° 0 mm 6 m/S 745 mmHg 46%
    13:00 +19°C° 0 mm 6 m/S 745 mmHg 45%
    14:00 +19°C° 0 mm 6 m/S 745 mmHg 43%
    15:00 +19°C° 0 mm 5 m/S 744 mmHg 44%
    16:00 +19°C° 0 mm 5 m/S 744 mmHg 45%
    17:00 +19°C° 0 mm 5 m/S 743 mmHg 47%
    18:00 +17°C° 0 mm 4 m/S 743 mmHg 52%
    19:00 +14°C° 0 mm 4 m/S 743 mmHg 58%
    20:00 +12°C° 0 mm 3 m/S 743 mmHg 64%
    21:00 +12°C° 0 mm 3 m/S 743 mmHg 65%
    22:00 +11°C° 0 mm 3 m/S 743 mmHg 65%
    23:00 +11°C° 0 mm 3 m/S 743 mmHg 66%

    26 April, Freitag

    Zeit Temperatur Niederschläge Wind Luftdruck Luftfeuchtigkeit
    00:00 +11°C° 0 mm 3 m/S 743 mmHg 68%
    01:00 +10°C° 0 mm 3 m/S 743 mmHg 70%
    02:00 +10°C° 0 mm 3 m/S 742 mmHg 72%
    03:00 +9°C° 0 mm 3 m/S 742 mmHg 74%
    04:00 +9°C° 0 mm 3 m/S 742 mmHg 76%
    05:00 +8°C° 0 mm 3 m/S 742 mmHg 78%
    06:00 +10°C° 0 mm 4 m/S 742 mmHg 72%
    07:00 +11°C° 0 mm 4 m/S 742 mmHg 66%
    08:00 +13°C° 0 mm 5 m/S 742 mmHg 60%
    09:00 +14°C° 0 mm 5 m/S 742 mmHg 55%
    10:00 +16°C° 0 mm 6 m/S 742 mmHg 49%
    11:00 +17°C° 0 mm 6 m/S 742 mmHg 44%
    12:00 +19°C° 0 mm 6 m/S 741 mmHg 43%
    13:00 +19°C° 0 mm 6 m/S 741 mmHg 42%
    14:00 +20°C° 0 mm 6 m/S 741 mmHg 41%
    15:00 +20°C° 0 mm 6 m/S 740 mmHg 43%
    16:00 +20°C° 0 mm 5 m/S 740 mmHg 45%
    17:00 +19°C° 0 mm 5 m/S 740 mmHg 46%
    18:00 +17°C° 0 mm 5 m/S 740 mmHg 51%
    19:00 +15°C° 0 mm 4 m/S 740 mmHg 55%
    20:00 +13°C° 0 mm 4 m/S 740 mmHg 60%
    21:00 +13°C° 0 mm 4 m/S 739 mmHg 60%
    22:00 +12°C° 0 mm 4 m/S 739 mmHg 60%
    23:00 +12°C° 0 mm 4 m/S 739 mmHg 60%

    27 April, Samstag

    Zeit Temperatur Niederschläge Wind Luftdruck Luftfeuchtigkeit
    00:00 +12°C° 0 mm 4 m/S 739 mmHg 61%
    01:00 +11°C° 0 mm 4 m/S 739 mmHg 63%
    02:00 +11°C° 0 mm 4 m/S 739 mmHg 64%
    03:00 +10°C° 0 mm 4 m/S 738 mmHg 66%
    04:00 +10°C° 0 mm 4 m/S 738 mmHg 68%
    05:00 +8°C° 0 mm 4 m/S 738 mmHg 71%
    06:00 +11°C° 0 mm 4 m/S 738 mmHg 66%
    07:00 +12°C° 0 mm 5 m/S 738 mmHg 61%
    08:00 +14°C° 0 mm 6 m/S 738 mmHg 57%
    09:00 +15°C° 0 mm 6 m/S 738 mmHg 53%
    10:00 +17°C° 0 mm 7 m/S 738 mmHg 50%
    11:00 +18°C° 0 mm 7 m/S 738 mmHg 47%
    12:00 +20°C° 0 mm 7 m/S 738 mmHg 46%
    13:00 +21°C° 0 mm 7 m/S 737 mmHg 46%
    14:00 +21°C° 0 mm 7 m/S 737 mmHg 46%
    15:00 +21°C° 0 mm 6 m/S 737 mmHg 47%
    16:00 +21°C° 0 mm 6 m/S 736 mmHg 49%
    17:00 +20°C° 0 mm 5 m/S 736 mmHg 50%
    18:00 +19°C° 0 mm 5 m/S 736 mmHg 55%
    19:00 +17°C° 0 mm 4 m/S 736 mmHg 60%
    20:00 +14°C° 0 mm 3 m/S 736 mmHg 66%
    21:00 +14°C° 0 mm 4 m/S 736 mmHg 68%
    22:00 +13°C° 0 mm 4 m/S 736 mmHg 69%
    23:00 +13°C° 0 mm 4 m/S 736 mmHg 71%

    28 April, Sonntag

    Zeit Temperatur Niederschläge Wind Luftdruck Luftfeuchtigkeit
    00:00 +12°C° 0 mm 4 m/S 736 mmHg 74%
    01:00 +12°C° 0 mm 4 m/S 735 mmHg 76%
    02:00 +11°C° 0 mm 4 m/S 735 mmHg 78%
    03:00 +11°C° 0 mm 4 m/S 735 mmHg 78%
    04:00 +10°C° 0 mm 4 m/S 735 mmHg 78%
    05:00 +10°C° 0 mm 4 m/S 735 mmHg 78%
    06:00 +11°C° 0 mm 4 m/S 735 mmHg 73%
    07:00 +12°C° 0 mm 4 m/S 735 mmHg 67%
    08:00 +14°C° 0 mm 5 m/S 735 mmHg 61%
    09:00 +15°C° 0 mm 5 m/S 736 mmHg 58%
    10:00 +17°C° 0 mm 5 m/S 736 mmHg 55%
    11:00 +19°C° 0 mm 6 m/S 736 mmHg 52%
    12:00 +19°C° 0 mm 5 m/S 736 mmHg 54%
    13:00 +19°C° 0 mm 5 m/S 736 mmHg 56%
    14:00 +19°C° 0 mm 4 m/S 736 mmHg 58%
    15:00 +19°C° 0 mm 4 m/S 736 mmHg 59%
    16:00 +19°C° 0 mm 3 m/S 735 mmHg 60%
    17:00 +19°C° 0 mm 2 m/S 735 mmHg 60%
    18:00 +18°C° 0 mm 2 m/S 735 mmHg 66%
    19:00 +16°C° 0 mm 2 m/S 735 mmHg 73%
    20:00 +15°C° 0 mm 1 m/S 736 mmHg 79%
    21:00 +14°C° 0 mm 1 m/S 736 mmHg 81%
    22:00 +14°C° 0 mm 2 m/S 736 mmHg 84%
    23:00 +13°C° 0 mm 2 m/S 736 mmHg 86%
    Mehr zeigen